Home   Weather   Glendale   Past weeks
Flag for USA

Past Weather in Glendale, Arizona, USA — Yesterday and Last 2 Weeks

Now
61 °F

Clear.


Feels Like: 61 °F
Forecast: 89 / 58 °F
Wind: No wind

Location: Phoenix-Deer Valley Municipal Airport

Current Time: Oct 23, 2019 at 4:35:32 am

Latest Report: Oct 23, 2019 at 3:53 am


Visibility: 10 mi

Pressure: 29.86 "Hg

Humidity: 29%

Dew Point: 28 °F

Location of GlendaleLocation

Past Weather in Glendale — Graph

°F

Glendale Temperature Yesterday

Maximum temperature yesterday: 87 °F (at 2:53 pm)
Minimum temperature yesterday: 61 °F (at 4:53 am)
Average temperature yesterday: 74 °F

High & Low Weather Summary for the Past Weeks

 TemperatureHumidityPressure
High94 °F (Oct 16, 12:53 pm)57% (Oct 18, 3:53 am)30.09 "Hg (Oct 18, 3:53 am)
Low53 °F (Oct 20, 6:53 am)5% (Oct 11, 9:53 am)29.56 "Hg (Oct 17, 6:53 pm)
Average75 °F22%29.82 "Hg
* Reported Oct 8 2:53 am — Oct 23 2:53 am, Glendale. Weather by CustomWeather, © 2019

Note: Actual official high and low records may vary slightly from our data, if they occured in-between our weather recording intervals... More about our weather records

Advertising

Glendale Weather History for the Previous 24 Hours

Scroll right to see more
 ConditionsComfort  
Time TempWeatherWind HumidityBarometerVisibility
2:53 am
Wed, Oct 23
63 °FClear.5 mph27%29.87 "Hg10 mi
1:53 am64 °FClear.No wind26%29.88 "Hg10 mi
12:53 am67 °FClear.No wind23%29.88 "Hg10 mi
11:53 pm
Tue, Oct 22
67 °FClear.6 mph23%29.89 "Hg10 mi
10:53 pm68 °FClear.3 mph23%29.90 "Hg10 mi
9:53 pm68 °FClear.No wind22%29.91 "Hg10 mi
8:53 pm71 °FClear.3 mph20%29.91 "Hg10 mi
7:53 pm76 °FClear.5 mph17%29.91 "Hg10 mi
6:53 pm80 °FClear.5 mph15%29.91 "Hg10 mi
5:53 pm84 °FClear.6 mph12%29.90 "Hg10 mi
4:53 pm86 °FSunny.8 mph11%29.91 "Hg10 mi
3:53 pm86 °FSunny.3 mph12%29.92 "Hg10 mi
2:53 pm87 °FSunny.N/A11%29.93 "Hg10 mi
1:53 pm86 °FSunny.7 mph11%29.96 "Hg10 mi
12:53 pm85 °FSunny.7 mph12%30.00 "Hg10 mi
11:53 am83 °FSunny.5 mph12%30.03 "Hg10 mi
10:53 am80 °FSunny.3 mph14%30.06 "Hg10 mi
9:53 am79 °FSunny.No wind14%30.07 "Hg10 mi
8:53 am76 °FSunny.No wind15%30.09 "Hg10 mi
7:53 am69 °FSunny.3 mph18%30.07 "Hg10 mi
6:53 am63 °FSunny.No wind21%30.05 "Hg10 mi
5:53 am62 °FClear.3 mph20%30.04 "Hg10 mi
4:53 am61 °FClear.No wind21%30.03 "Hg10 mi
Weather by CustomWeather, © 2019

See weather overview